Torna al catalogo

CZ-6A DEB

AttivoPO
NORAD 54614·DEBRIS·🇨🇳 China

Lanciato Nov 11, 2022 da Taiyuan Satellite Launch Center

Loading…

Prossimi Passaggi (prossime 24 ore)

TLE

AggiornatoSource: Space-Track

Epoca: Sep 14, 2026, 05:29 UTC

1 54614U 22151NQ  26257.22895812  .00075481  00000-0  33767-2 0  9993
2 54614  98.6289 359.2342 0028462 273.0618  86.7357 15.20621523133304

Traccia CZ-6A DEB in tempo reale con AllMySat

Download on the App Store